Location: Casteau
(50.5142°N, 4.0161°E)
Time: 01:16:40
(UTC+00:00)

Transit 2A - Pass Details

Date: 30 July 2021
Orbit: 594 x 964 km, 66.7° (Epoch: 27 September)

Event Time Altitude Azimuth Distance (km) Brightness Sun altitude
Rises 09:49:57 0° 290° (WNW) 2,950 8.7 50.0°
Reaches altitude 10° 09:53:18 10° 317° (NW) 2,106 8.0 50.3°
Maximum altitude 09:55:45 14° 348° (NNW) 1,912 7.9 50.6°
Drops below altitude 10° 09:58:19 10° 19° (NNE) 2,221 8.3 50.9°
Sets 10:02:03 0° 45° (NE) 3,238 9.2 51.3°
